User: anonymous   Login
Location: *
(51.1248°S, 108.4023°W)
Time: 19:44:59
(UTC+00:00)
Language:

CZ-2D R/B - Orbit

View from above orbital plane
View from above orbital plane
View from above satellite
View from above satellite

Ground track
Ground track

The orbit data is extracted from the following two-line orbital elements,

1 28738U 05024B   21261.46226408  .00000734  00000-0  45631-4 0  9990
2 28738  97.3604 274.2009 0012967  46.2209 314.0092 15.12545293890622
Epoch (UTC): 18 September 2021 11:05:39
Eccentricity: 0.0012967
inclination: 97.3604°
perigee height: 519 km
apogee height: 537 km
right ascension of ascending node: 274.2009°
argument of perigee: 46.2209°
revolutions per day: 15.12545293
mean anomaly at epoch: 314.0092°
orbit number at epoch: 89062

The dashed part of the orbit path shows where the satellite is in the earth's shadow,  

DLR